Location: Allonne
(49.4086°N, 2.1143°E)
Time: 12:20:56
(UTC+00:00)

Cosmos 1745 Rocket - Pass Details

Date: 03 February 2023
Orbit: 951 x 999 km, 83.0° (Epoch: 22 March)

Event Time Altitude Azimuth Distance (km) Brightness Sun altitude
Rises 19:13:11 0° 349° (N) 3,701 7.2 -23.4°
Reaches altitude 10° 19:15:44 10° 348° (NNW) 2,742 6.5 -23.8°
Maximum altitude 19:22:00 76° 264° (W) 1,005 4.1 -24.8°
Drops below altitude 10° 19:28:08 10° 180° (S) 2,691 6.3 -25.8°
Sets 19:30:37 0° 179° (S) 3,627 6.9 -26.2°
